Location: Hac?musa Deresi
(39.1694°N, 32.2508°E)
Time: 15:44:17
(UTC+00:00)

Cosmos 2279 Rocket - Pass Details

Date: 22 April 2026
Orbit: 964 x 977 km, 82.9° (Epoch: 11 May)

Event Time Altitude Azimuth Distance (km) Brightness Sun altitude
Exits shadow 23:43:06 59° 334° (NNW) 1,115 4.3 -32.0°
Drops below altitude 10° 23:48:15 10° 3° (N) 2,727 7.0 -31.4°
Sets 23:50:47 0° 5° (N) 3,680 7.9 -31.1°
